Presure
141 195 172 183 189 172 183 192 177 194 181 177 194 179 188 187 216 200 198 208 233 224 219 237 252 232 214 235 220 221 183 212 184 183 210 175 182 191
187 179 178 185 172 190 194 182 187 187 183 176 171 152 195 208 198 200 237 239 213 222 240 209 232 219 215 211 196 213 215 190 206 212 181 200 207 216
182 184 179 187 193 184 191 186 186 187 162 167 170 186 198 202 211 221 241 198 249 233 226 219 219 200 206 213 212 202 184 218 206 197 178 180 185 177
189 181 198 180 185 183 190 191 152 190 189 190 199 204 208 211 230 236 252 241 224 227 184 202 190 214 217 202 185 212 209 207 197 205 226 212 216 212
179 184 183 192 191 186 145 202 208 182 201 210 207 211 242 233 225 239 231 228 210 214 224 210 199 212 198 207 188 193 219 223 215 220 192 205 209 210
182 187 187 175 152 215 199 193 201 205 213 214 243 250 250 236 239 217 214 204 218 207 216 226 226 226 185 206 224 215 223 216 210 213 207 200 201 212
192 170 166 212 193 193 202 203 208 221 244 245 250 237 234 232 240 218 209 222 212 227 234 194 238 232 232 226 223 218 218 212 216 216 221 221 214 242
153 191 211 191 205 206 206 216 232 238 234 236 224 235 216 192 208 213 203 242 236 207 239 232 247 284 281 273 274 279 287 289 288 280 272 269 261 247
194 195 203 206 215 215 221 220 249 234 227 237 234 230 230 226 219 227 226 217 271 273 309 309 381 335 296 491 482 469 457 450 446 381 356 355 313 304
209 185 195 218 222 257 243 190 228 220 214 229 228 219 223 228 239 254 307 345 454 464 412 413 498 490 479 468 465 466 463 469 474 477 483 489 465 434
215 224 245 253 252 222 231 223 229 220 203 228 213 215 230 279 366 367 359 418 397 378 366 481 473 464 459 448 441 438 436 440 447 450 452 457 463 468
220 241 243 219 227 219 229 211 224 220 214 207 224 285 356 445 447 515 509 376 374 477 449 455 449 449 440 411 405 416 448 449 457 468 473 473 486 496
234 219 223 222 230 210 215 222 217 220 218 254 322 384 429 434 475 439 392 481 468 449 436 439 423 413 411 426 432 405 419 450 465 469 468 464 470 473
219 220 208 208 223 225 236 209 217 241 295 350 412 426 415 411 451 439 477 463 448 429 420 415 410 406 422 397 395 396 446 444 447 442 487 464 463 439
206 211 214 195 216 205 212 259 289 242 338 432 415 403 357 389 408 486 465 445 421 414 411 408 408 427 379 387 397 429 439 427 473 489 478 458 427 423
212 210 194 204 215 238 276 280 339 347 421 408 392 364 371 370 365 370 425 416 410 401 409 408 380 376 379 387 391 425 422 440 435 447 434 412 402 404
218 218 251 247 240 280 305 333 373 409 398 393 357 367 364 362 359 398 417 408 398 389 381 380 380 380 377 383 412 414 412 465 440 398 397 393 390 386
255 251 266 278 280 335 327 419 409 388 364 337 354 352 359 357 357 364 422 410 397 391 385 381 381 376 377 385 413 402 401 440 424 388 388 384 378 383
271 279 276 304 332 320 422 407 391 369 323 356 346 367 349 350 383 457 426 408 402 396 389 385 382 379 375 388 402 408 400 433 414 374 380 375 365 365
277 280 319 326 311 420 403 390 366 325 365 354 339 369 365 346 378 486 457 432 409 403 393 392 389 384 387 395 398 398 395 422 408 374 371 366 368 362
288 323 317 307 413 400 379 334 372 362 358 338 363 366 366 361 366 435 453 453 445 433 414 409 403 408 403 396 399 395 391 405 402 372 366 361 365 382
319 310 353 410 392 359 323 373 361 353 337 360 355 367 361 360 358 412 424 429 417 419 413 407 402 397 382 386 400 395 387 396 393 368 371 368 373 376
302 422 407 388 378 336 365 352 349 337 355 362 365 364 360 359 349 382 411 411 438 407 406 405 393 388 388 395 410 399 385 389 377 380 363 357 379 381
Wind_Speed
75 94 77 89 95 83 90 100 89 103 95 98 113 103 111 109 123 117 114 117 111 107 103 94 68 70 74 64 66 62 51 58 45 46 55 58 48 44
96 89 88 98 87 96 104 95 102 99 98 99 96 84 119 120 119 120 118 113 116 107 90 84 80 79 78 76 58 68 70 52 62 66 62 59 57 53
93 101 95 105 111 103 111 106 107 107 85 94 97 113 120 122 125 122 113 117 90 94 96 95 94 80 87 86 80 75 59 78 71 63 64 68 69 65
104 104 112 104 112 111 116 118 82 120 116 118 127 129 129 127 125 119 98 98 104 100 78 95 84 101 99 86 72 91 88 85 73 79 85 82 83 79
102 111 111 122 122 119 82 132 134 113 132 133 131 131 128 124 123 112 110 110 97 104 109 102 99 109 97 102 79 82 98 96 92 95 74 85 86 87
116 122 125 111 83 136 131 131 136 137 138 136 133 120 113 121 117 107 96 105 116 107 118 120 119 121 87 102 113 108 104 102 96 96 95 86 90 94
132 106 101 141 131 132 137 137 139 140 136 125 117 126 127 127 123 117 109 120 111 129 130 93 129 125 126 122 121 117 115 108 109 107 111 111 102 113
87 132 143 134 140 140 140 141 135 130 126 125 134 128 127 91 114 115 106 130 131 117 134 129 134 137 138 135 135 135 136 133 133 130 126 121 120 118
145 143 144 144 143 141 138 138 123 130 131 130 128 134 122 128 125 130 136 130 138 139 142 135 120 109 100 78 84 92 98 102 105 120 125 126 130 127
149 125 128 136 138 116 123 108 127 135 129 138 125 121 134 143 145 140 143 135 92 80 97 91 64 63 65 66 69 68 69 70 71 73 75 75 89 108
143 141 129 118 123 114 128 129 128 135 111 133 124 133 144 147 134 110 104 92 92 94 98 59 57 57 55 56 62 63 63 67 67 69 70 70 70 70
136 125 110 132 123 131 128 128 134 132 124 121 145 149 135 89 86 60 59 92 90 50 56 52 51 52 45 54 61 63 58 57 57 52 51 49 46 46
108 121 120 126 124 132 136 140 124 121 134 142 136 114 87 83 65 72 80 52 50 49 53 48 47 51 51 46 48 54 53 49 46 42 39 37 34 36
117 117 124 127 125 132 136 120 136 140 137 128 95 80 78 77 62 59 46 49 48 46 48 49 45 48 48 43 45 46 43 40 36 33 27 25 24 34
120 124 128 105 134 117 126 137 135 136 126 79 77 74 86 73 65 40 43 45 45 47 46 46 44 45 45 43 40 39 33 36 31 21 19 21 26 29
123 125 104 119 132 132 133 133 125 117 76 73 72 78 73 71 70 67 46 47 45 47 47 45 42 42 41 40 39 33 32 26 23 18 20 23 27 28
123 119 123 128 128 130 127 123 102 77 73 70 76 71 70 69 68 57 48 47 45 45 48 47 42 39 38 35 31 31 29 17 18 22 22 25 28 30
119 119 123 126 126 121 120 80 76 73 77 80 73 71 67 65 63 61 45 45 44 44 44 43 41 38 37 35 25 27 25 17 20 22 22 27 31 30
119 120 123 126 118 118 76 74 72 74 81 73 73 69 68 65 56 37 42 42 41 41 41 40 38 34 34 32 29 18 22 21 22 25 24 29 33 35
117 121 120 115 116 75 73 72 73 79 72 71 72 66 62 62 53 30 34 36 38 37 38 37 33 31 29 26 25 21 20 19 24 27 27 31 35 39
121 113 113 114 74 73 73 79 69 70 68 69 66 61 57 55 52 36 31 31 31 31 33 34 30 28 26 24 24 23 20 19 26 30 30 33 36 37
110 111 99 73 73 77 78 67 67 67 68 63 61 55 53 52 50 42 37 35 35 32 31 31 28 26 24 23 24 23 22 21 27 31 32 34 36 39
111 72 71 71 71 75 67 66 65 66 61 57 54 51 51 50 49 47 41 38 33 34 29 29 28 27 25 23 23 24 23 24 28 31 34 35 36 36
Wind_Direction
285 295 286 299 298 287 297 298 291 301 298 297 299 298 300 301 301 302 302 303 300 300 300 300 296 296 298 292 292 288 269 285 260 262 281 265 269 259
295 295 295 295 289 290 296 295 297 295 293 292 293 291 298 298 299 300 299 300 300 301 297 299 295 295 294 295 284 285 284 278 282 282 266 271 272 256
293 295 293 295 296 295 296 294 295 294 290 292 293 296 298 298 298 298 297 300 296 294 295 297 296 299 300 293 285 293 263 279 280 281 248 256 256 249
292 292 291 293 295 293 294 294 289 296 296 296 296 297 297 299 299 297 294 292 293 290 296 302 292 294 291 296 275 289 285 288 283 285 270 280 271 271
292 293 293 294 293 293 287 295 295 295 295 296 296 297 296 297 297 294 293 295 296 299 293 286 300 295 295 295 278 283 282 274 281 276 264 279 278 275
293 293 292 292 291 293 294 294 294 295 296 296 296 296 295 293 292 293 296 307 300 299 301 295 294 291 275 291 286 285 277 280 278 275 274 267 268 271
290 290 291 291 292 292 292 293 295 296 295 294 292 293 293 293 291 299 293 297 302 299 296 283 292 291 288 287 284 281 279 274 274 273 270 269 268 264
292 290 289 291 292 292 293 294 294 293 292 291 293 292 298 293 307 293 304 294 294 299 293 292 289 284 283 283 280 278 275 273 270 268 266 263 260 259
288 288 290 291 291 292 293 292 292 292 291 291 293 294 294 294 302 300 302 301 292 291 289 286 285 284 285 273 271 268 265 263 260 264 264 261 261 260
286 288 289 289 290 291 290 292 290 291 295 294 300 305 306 302 298 296 294 293 291 290 289 289 282 281 279 279 278 276 274 272 270 268 266 265 257 249
287 287 289 290 289 288 288 289 290 292 298 294 308 308 300 296 298 297 297 296 295 293 291 284 282 279 280 278 278 276 274 272 269 267 266 264 261 257
285 286 286 287 286 286 288 295 292 295 304 310 303 295 300 301 299 292 292 296 296 289 286 286 284 282 278 278 278 279 281 279 277 277 273 269 264 255
282 283 284 286 288 293 294 294 298 303 306 298 300 302 302 301 296 296 297 291 291 291 288 287 284 284 285 281 282 278 281 281 281 279 276 267 259 251
281 283 288 291 290 291 291 300 304 297 299 303 305 305 303 302 296 295 289 291 293 292 290 290 289 289 291 285 283 282 289 286 281 275 272 254 241 239
287 289 289 294 290 302 301 295 299 299 303 308 307 306 303 304 302 288 288 292 297 294 292 292 292 293 288 289 288 295 289 283 279 267 234 229 237 235
288 290 299 299 296 299 297 300 304 305 308 308 307 305 304 304 304 304 298 296 296 295 292 292 293 291 291 292 290 296 289 283 266 246 239 231 224 221
289 292 293 295 298 299 303 305 307 308 309 308 305 305 305 305 305 303 299 297 296 294 293 295 295 292 290 288 297 292 286 259 247 235 229 222 217 213
293 293 296 297 299 305 305 308 307 306 307 306 307 307 307 306 305 305 297 296 296 294 292 293 292 293 291 290 288 283 279 244 237 223 219 213 212 205
297 299 298 304 305 305 308 307 306 306 304 306 306 307 305 306 308 297 297 296 294 292 292 290 290 289 287 288 289 277 272 233 228 213 212 211 207 205
300 301 305 305 305 308 307 306 305 304 306 304 306 307 306 306 310 296 294 293 292 291 289 287 288 286 284 282 279 271 261 235 217 209 204 208 208 204
303 305 305 305 307 308 307 305 306 306 306 306 307 307 307 309 311 311 302 296 291 288 285 285 286 283 280 275 268 260 250 231 213 211 204 204 207 204
305 304 307 307 308 307 305 306 306 306 306 306 306 306 307 308 311 312 307 300 296 291 286 285 283 278 271 266 260 249 239 227 216 211 207 206 208 207
304 307 308 308 307 306 308 307 306 306 304 305 305 306 307 308 309 310 306 301 291 290 286 282 280 276 269 258 249 240 230 222 211 208 207 206 209 207